TimePST,TemperatureF,Dew PointF,Humidity,Sea Level PressureIn,VisibilityMPH,Wind Direction,Wind SpeedMPH,Gust SpeedMPH,PrecipitationIn,Events,Conditions,WindDirDegrees,DateUTC
12:53 AM,15.1,10.9,84,30.46,10.0,Calm,Calm,-,N/A,,Clear,0,2014-01-05 08:53:00
1:53 AM,12.9,9.0,84,30.50,10.0,Calm,Calm,-,N/A,,Clear,0,2014-01-05 09:53:00
2:53 AM,12.0,10.0,92,30.51,10.0,Calm,Calm,-,N/A,,Clear,0,2014-01-05 10:53:00
3:53 AM,12.9,9.0,84,30.53,10.0,Calm,Calm,-,N/A,,Clear,0,2014-01-05 11:53:00
4:53 AM,10.9,8.1,88,30.56,10.0,ENE,3.5,-,N/A,,Clear,70,2014-01-05 12:53:00
5:53 AM,9.0,7.0,92,30.58,10.0,NNE,3.5,-,N/A,,Clear,30,2014-01-05 13:53:00
6:53 AM,12.0,7.0,80,30.60,10.0,NE,6.9,-,N/A,,Clear,40,2014-01-05 14:53:00
7:53 AM,14.0,9.0,80,30.62,10.0,Calm,Calm,-,N/A,,Clear,0,2014-01-05 15:53:00
8:53 AM,17.1,10.9,77,30.65,10.0,WNW,6.9,-,N/A,,Clear,290,2014-01-05 16:53:00
9:53 AM,26.1,15.1,63,30.65,10.0,East,3.5,-,N/A,,Clear,80,2014-01-05 17:53:00
10:53 AM,30.0,14.0,51,30.65,10.0,NNE,6.9,-,N/A,,Clear,30,2014-01-05 18:53:00
11:53 AM,30.0,15.1,54,30.64,10.0,Calm,Calm,-,N/A,,Clear,0,2014-01-05 19:53:00
12:53 PM,30.9,15.1,52,30.63,10.0,South,3.5,-,N/A,,Clear,170,2014-01-05 20:53:00
1:53 PM,30.9,15.1,52,30.63,10.0,Calm,Calm,-,N/A,,Clear,0,2014-01-05 21:53:00
2:53 PM,30.9,14.0,50,30.62,10.0,Calm,Calm,-,N/A,,Clear,0,2014-01-05 22:53:00
3:53 PM,30.9,14.0,50,30.63,10.0,Calm,Calm,-,N/A,,Overcast,0,2014-01-05 23:53:00
4:53 PM,26.1,15.1,63,30.63,10.0,Calm,Calm,-,N/A,,Overcast,0,2014-01-06 00:53:00
5:53 PM,27.0,17.1,66,30.63,10.0,Calm,Calm,-,N/A,,Overcast,0,2014-01-06 01:53:00
6:53 PM,27.0,17.1,66,30.61,10.0,Calm,Calm,-,N/A,,Overcast,0,2014-01-06 02:53:00
7:53 PM,23.0,15.1,72,30.61,10.0,Calm,Calm,-,N/A,,Clear,0,2014-01-06 03:53:00
8:53 PM,21.0,14.0,74,30.61,10.0,Calm,Calm,-,N/A,,Clear,0,2014-01-06 04:53:00
9:53 PM,15.1,10.0,80,30.61,10.0,Calm,Calm,-,N/A,,Clear,0,2014-01-06 05:53:00
10:53 PM,16.0,10.9,81,30.59,10.0,Calm,Calm,-,N/A,,Clear,0,2014-01-06 06:53:00
11:53 PM,10.9,8.1,88,30.58,10.0,North,3.5,-,N/A,,Clear,350,2014-01-06 07:53:00